Hourly Data Report for September 10, 2003

TORONTO CITY
ONTARIO

43°40'00.000" N
79°24'00.000" W
112.50 m
6158355
71508
XTO

Download Data

Hourly Data (September 2003)
Hourly Data Report for September 10, 2003
TIME
LST
Temp Definition
°C
Dew Point Definition
°C
Rel Hum Definition
%
Precip. Amount Definition
mm

Wind Dir Definition
10's deg

Wind Spd Definition
km/h
Visibility Definition
km
Stn Press Definition
kPa
Hmdx Definition


Wind Chill Definition


Weather Definition


00:00 17.8 14.2 79   LegendMM LegendMM LegendMM 101.07     LegendNANA
01:00 17.8 14.7 82   LegendMM LegendMM LegendMM 101.05     LegendNANA
02:00 17.3 14.9 86   LegendMM LegendMM LegendMM 101.03     LegendNANA
03:00 16.6 14.3 86   LegendMM LegendMM LegendMM 101.01     LegendNANA
04:00 16.4 13.7 84   LegendMM LegendMM LegendMM 101.03     LegendNANA
05:00 16.0 13.4 85   LegendMM LegendMM LegendMM 101.06     LegendNANA
06:00 15.8 13.4 86   LegendMM LegendMM LegendMM 101.10     LegendNANA
07:00 16.2 13.7 85   LegendMM LegendMM LegendMM 101.12     LegendNANA
08:00 18.0 14.7 81   LegendMM LegendMM LegendMM 101.14     LegendNANA
09:00 20.1 16.1 78   LegendMM LegendMM LegendMM 101.17 25   LegendNANA
10:00 21.0 16.0 73   LegendMM LegendMM LegendMM 101.20 26   LegendNANA
11:00 22.2 16.2 69   LegendMM LegendMM LegendMM 101.19 27   LegendNANA
12:00 23.2 15.8 63   LegendMM LegendMM LegendMM 101.16 28   LegendNANA
13:00 24.1 15.7 59   LegendMM LegendMM LegendMM 101.16 29   LegendNANA
14:00 24.1 14.2 54   LegendMM LegendMM LegendMM 101.09 28   LegendNANA
15:00 23.9 13.6 52   LegendMM LegendMM LegendMM 101.03 27   LegendNANA
16:00 23.2 13.1 53   LegendMM LegendMM LegendMM 101.04 26   LegendNANA
17:00 22.9 12.5 52   LegendMM LegendMM LegendMM 101.03 25   LegendNANA
18:00 21.9 12.4 55   LegendMM LegendMM LegendMM 101.05     LegendNANA
19:00 20.3 12.4 60   LegendMM LegendMM LegendMM 101.01     LegendNANA
20:00
21:00 19.6 14.5 72   LegendMM LegendMM LegendMM 101.05     LegendNANA
22:00 18.3 14.7 80   LegendMM LegendMM LegendMM 101.06     LegendNANA
23:00                      

Notes on Data Quality.

Legend

  • E = Estimated
  • M = Missing
  • NA = Not Available*
  • [empty] = Indicates an unobserved value
Date modified: